STARLINK-11191, 60410

Orbit data source: Space-Track

STARLINK-11191, 60410 is a payload satellite owned by SpaceX/Seattle (US) in LEO that was launched on Sat, 10 Aug 2024 UTC via an FALCON 9 launch vehicle from the Air Force Eastern Test Range (AFETR). Payload-class satellites include a variety of spacecraft equipped with specific instruments for various scientific and technological missions. These include communications satellites like Starlink; space stations such as the ISS; scientific satellites like the Hubble; Earth observation satellites from companies like Planet Labs, Umbra, and HawkEye 360; GPS; miniature CubeSats for education and research; and military/defense satellites.

Loading next visibility...
Identifier
60410, 2024-141N
Orbit
LEO
Last TLE update
18 hours ago
Origin
Manufacturer
SpaceX/Seattle
Mission
Operational Commercial Communications
Bus & Motor
STARLINK V2M, Unknown motor
Mass
730 kg wet, ~700 kg dry
Launch date (UTC)
2024-08-10 (11 months ago)
Launch vehicle
FALCON 9
Launch site
Air Force Eastern Test Range (AFETR)
Object type
Payload
Rocket body
Debris
Shape & HBR
Box + 2 Pan, 29 m
Radar Cross Section
36.964 m², Large (>1 m²)

Expand to show TLE details & history

TLE from 18 hours ago
0 STARLINK-11191
1 60410U 24141N   25186.39426227 -.00000935  00000-0 -28566-5 0  9991
2 60410  53.1593 225.2379 0001406  78.3273 281.7903 15.69699644 52905
Epoch: 2025-07-05T09:27Z
TLE epoch observation values (Epoch: 2025-07-05T09:27:44.26Z)
Latitude
0.00003°
Longitude
159.67057°
Altitude
360.478 km
Speed
7.694 km/s
True Right ascension
15h 00m 57s
True Declination
0° 00' 00"
Sunlit
Object was in full shadow at epoch
Visualization orbit readout
Latitude
-44.03078°
Longitude
22.08056°
Altitude
375.463 km
Speed
7.684 km/s
Apparent Right ascension
04h 32m 09s
Apparent Declination
-43° 32' 21"
Sunlit
Object is in daylight
Visualization observer readout
Local Sidereal Time
15:14:19
Azimuth
249.61° W
Elevation
-75.07°
Doppler factor
1
Orbital elements
Apogee altitude
360.965 km
Perigee altitude
359.07 km
Semi-major axis
6,738.154 km
Eccentricity
0.00014
Inclination
53.1593°
RAAN
225.2379°
Arg. of periapsis
78.3273°
True anomaly
Unknown
Mean anomaly
281.7903°
Eccentric anomaly
Unknown
Mean motion
3.92402 °/min
Orbital period
91.74 mins
BSTAR
-0.0000028566
Loading maneuver chart data...
Loading SW <> Apogee altitude chart data...
Loading historical data...
Loading historical data...
Loading historical data...
Loading historical data...
Loading historical data...
Loading historical data...
Loading historical data...

STARLINK-11191 Visibility forecast

Observer location: undefined°, undefined°

Span
Click to sort rows by Start time (UTC) header in descending order
Start Az.
Max El. time (UTC)
Max El. Az.
Max El.
End time (UTC)
End Az.
5 mins2025-07-06 05:31:20.199Z240.188° WSW2025-07-06 05:33:20.199Z285.148° WNW41.041°2025-07-06 05:36:20.199Z44.45° NE
|